This demonstration page uses our WeatherBlox Daily Observations layout. Learn more.

Left ArrowRight Arrow

Hourly Observations for February 12, 2015

Temp ( °F °C ) Dew Point ( °F °C ) Humidity (%) Winds ( mph kmh ) Pressure ( in mb ) Visibility ( mi km ) Precip ( " mm )
12:51 am 00:51 Clear 50 10 31 -0.6 48 48 SSE 7 11 30.17 1022 10 16 0.00 0.00
1:51 am 01:51 Clear 49 9.4 30 -1.1 48 48 ESE 7 11 30.20 1023 10 16 0.00 0.00
2:51 am 02:51 Clear 48 8.9 32 0 54 54 S 7 11 30.22 1023 10 16 0.00 0.00
3:51 am 03:51 Clear 46 7.8 32 0 58 58 S 13 20 30.23 1024 10 16 0.00 0.00
4:51 am 04:51 Clear 46 7.8 32 0 58 58 SE 10 17 30.24 1024 10 16 0.00 0.00
5:51 am 05:51 Clear 44 6.7 32 0 63 63 ESE 7 11 30.24 1024 10 16 0.00 0.00
6:51 am 06:51 Clear 43 6.1 31 -0.6 63 63 SSE 10 17 30.28 1025 10 16 0.00 0.00
7:51 am 07:51 Sunny 45 7.2 31 -0.6 58 58 SSE 10 17 30.31 1026 10 16 0.00 0.00
8:51 am 08:51 Sunny 48 8.9 31 -0.6 52 52 SSE 10 17 30.32 1027 10 16 0.00 0.00
9:51 am 09:51 Sunny 50 10 31 -0.6 48 48 SSE 8 13 30.31 1026 10 16 0.00 0.00
10:51 am 10:51 Sunny 54 12.2 30 -1.1 40 40 SSE 7 11 30.30 1026 10 16 0.00 0.00
11:51 am 11:51 Sunny 58 14.4 30 -1.1 35 35 SE 7 11 30.28 1025 10 16 0.00 0.00
12:51 pm 12:51 Sunny 62 16.7 29 -1.7 29 29 ESE 12 19 30.22 1023 10 16 0.00 0.00
1:51 pm 13:51 Sunny 65 18.3 29 -1.7 26 26 SSE 21 33 30.17 1022 10 16 0.00 0.00
2:51 pm 14:51 Sunny 65 18.3 29 -1.7 26 26 S 15 24 30.13 1020 10 16 0.00 0.00
3:51 pm 15:51 Sunny 66 18.9 29 -1.7 25 25 SSE 16 26 30.13 1020 10 16 0.00 0.00
4:51 pm 16:51 Sunny 64 17.8 29 -1.7 27 27 S 16 26 30.14 1021 10 16 0.00 0.00
5:51 pm 17:51 Sunny 61 16.1 29 -1.7 30 30 S 13 20 30.14 1021 10 16 0.00 0.00
6:51 pm 18:51 Clear 58 14.4 29 -1.7 33 33 SE 8 13 30.17 1022 10 16 0.00 0.00
7:51 pm 19:51 Clear 55 12.8 28 -2.2 35 35 SE 9 15 30.18 1022 10 16 0.00 0.00
8:51 pm 20:51 Clear 52 11.1 29 -1.7 41 41 E 9 15 30.19 1022 10 16 0.00 0.00
9:51 pm 21:51 Clear 51 10.6 29 -1.7 43 43 E 10 17 30.19 1022 10 16 0.00 0.00
10:51 pm 22:51 Clear 48 8.9 30 -1.1 50 50 SSE 10 17 30.20 1023 10 16 0.00 0.00
11:51 pm 23:51 Clear 47 8.3 30 -1.1 52 52 SSE 7 11 30.20 1023 10 16 0.00 0.00

Powered by AerisWeather